History for Miami, FL

Monday, February 25, 2013 — View Current Conditions

Jump to Data:

Date:
Airport Code:
Recently Viewed Airport Codes: KMIA
Daily Summary
  Actual Average Record
Temperature
Mean Temperature 79°F 71°F  
Max Temperature 86°F 79°F 89°F (1994)
Min Temperature 72°F 63°F 37°F (1989)
Degree Days
Heating Degree Days 0 1  
Month to date heating degree days 16 25  
Since 1 July heating degree days 36 115  
Cooling Degree Days 14 7  
Month to date cooling degree days 184 150  
Year to date cooling degree days 453 301  
Growing Degree Days 28 (Base 50)    
Moisture
Dew Point 71°F    
Average Humidity 77    
Maximum Humidity 93    
Minimum Humidity 61    
Precipitation
Precipitation 0.00 in 0.08 in 1.78 in (2004)
Month to date precipitation 1.74 2.00  
Year to date precipitation 2.28 3.62  
Snow
Snow 0.00 in in in ()
Month to date snowfall 0.0  
Since 1 July snowfall 0.0  
Snow Depth 0.00 in    
Sea Level Pressure
Sea Level Pressure 29.89 in    
Wind
Wind Speed 8 mph (SSE)    
Max Wind Speed 18 mph    
Max Gust Speed 28 mph    
Visibility 9 miles    
Events      
T = Trace of Precipitation, MM = Missing Value Source: NWS Daily Summary

Show full METARS

(help) - Comma Delimited File

Hourly Observations

Time(EST) Temperature Dew Point Humidity Sea Level Pressure Visibility Wind Direction Wind Speed Gust Speed Precipitation Events Conditions
12:53 AM 72.0°F 70.0°F 93% 29.92 in 9.0 miles Calm Calm - N/A   Mostly Cloudy
1:45 AM 71.6°F 69.8°F 94% 29.92 in 8.0 miles Calm Calm - N/A   Mostly Cloudy
1:53 AM 73.0°F 71.1°F 93% 29.91 in 8.0 miles Calm Calm - N/A   Mostly Cloudy
2:53 AM 73.0°F 70.0°F 90% 29.90 in 8.0 miles Calm Calm - N/A   Overcast
3:14 AM 73.4°F 69.8°F 88% 29.89 in 8.0 miles Calm Calm - N/A   Overcast
3:53 AM 73.0°F 70.0°F 90% 29.90 in 8.0 miles Calm Calm - N/A   Overcast
4:53 AM 73.0°F 70.0°F 90% 29.88 in 9.0 miles SE 4.6 mph - N/A   Mostly Cloudy
5:53 AM 73.9°F 72.0°F 93% 29.89 in 9.0 miles SSE 3.5 mph - N/A   Overcast
6:53 AM 73.9°F 71.1°F 91% 29.89 in 8.0 miles SE 4.6 mph - N/A   Mostly Cloudy
7:53 AM 75.9°F 72.0°F 87% 29.90 in 7.0 miles SSE 6.9 mph - N/A   Scattered Clouds
8:49 AM 78.8°F 71.6°F 78% 29.92 in 10.0 miles SSE 6.9 mph - N/A   Mostly Cloudy
8:53 AM 78.1°F 73.0°F 84% 29.93 in 10.0 miles SSE 8.1 mph - N/A   Mostly Cloudy
9:32 AM 80.6°F 71.6°F 74% 29.93 in 10.0 miles SE 9.2 mph - N/A   Mostly Cloudy
9:48 AM 80.6°F 71.6°F 74% 29.93 in 10.0 miles SE 10.4 mph 17.3 mph N/A   Mostly Cloudy
9:53 AM 81.0°F 72.0°F 74% 29.93 in 10.0 miles South 9.2 mph - N/A   Mostly Cloudy
10:53 AM 82.9°F 70.0°F 65% 29.92 in 10.0 miles SSE 12.7 mph 18.4 mph N/A   Partly Cloudy
11:03 AM 82.4°F 71.6°F 70% 29.92 in 10.0 miles SSE 11.5 mph 19.6 mph N/A   Mostly Cloudy
11:51 AM 82.4°F 71.6°F 70% 29.90 in 10.0 miles SSE 12.7 mph 19.6 mph N/A   Mostly Cloudy
11:53 AM 82.9°F 71.1°F 67% 29.91 in 10.0 miles SE 11.5 mph 19.6 mph N/A   Mostly Cloudy
12:53 PM 84.0°F 70.0°F 63% 29.88 in 10.0 miles South 13.8 mph 21.9 mph N/A   Mostly Cloudy
1:53 PM 84.0°F 70.0°F 63% 29.86 in 10.0 miles South 12.7 mph 21.9 mph N/A   Mostly Cloudy
2:53 PM 84.0°F 69.1°F 61% 29.85 in 10.0 miles South 15.0 mph 23.0 mph N/A   Mostly Cloudy
3:53 PM 82.9°F 68.0°F 60% 29.84 in 10.0 miles SSE 12.7 mph 18.4 mph N/A   Mostly Cloudy
4:53 PM 81.0°F 66.9°F 62% 29.84 in 10.0 miles South 13.8 mph 21.9 mph N/A   Scattered Clouds
5:53 PM 79.0°F 69.1°F 72% 29.85 in 10.0 miles SSE 9.2 mph 20.7 mph N/A   Scattered Clouds
6:53 PM 77.0°F 70.0°F 79% 29.85 in 10.0 miles SSE 8.1 mph 17.3 mph N/A   Scattered Clouds
7:53 PM 75.9°F 70.0°F 82% 29.87 in 10.0 miles South 8.1 mph - N/A   Partly Cloudy
8:53 PM 75.9°F 70.0°F 82% 29.87 in 10.0 miles SE 6.9 mph - N/A   Scattered Clouds
9:53 PM 75.9°F 71.1°F 85% 29.87 in 10.0 miles SE 10.4 mph 19.6 mph N/A   Scattered Clouds
10:53 PM 75.9°F 72.0°F 87% 29.87 in 10.0 miles SE 9.2 mph - N/A   Mostly Cloudy
11:53 PM 75.9°F 72.0°F 87% 29.87 in 10.0 miles SE 9.2 mph - N/A   Mostly Cloudy